Simultaneous Nadir Overpasses (SNOs) Predictions

Prediction of SNOs between LANDSAT-8 and METOP-B Satellite Orbit:

Table of predicted SNOs for the next 14.0 days since TLE Epoch: 11/4/2022
Index Date (LANDSAT-8) Time (LANDSAT-8) Lat,Lon (LANDSAT-8) SZA (LANDSAT-8 ) Date (METOP-B) Time (METOP-B) Lat,Lon (METOP-B) SZA (METOP-B ) Distance(km) Time Diff (sec)
1 11/05/2022 20:49:19 -81.11, 87.44 80.66 11/05/2022 20:48:13 -81.10, 87.34 80.71 1.91 66
2 11/05/2022 21:38:45 81.12,-104.81 99.37 11/05/2022 21:38:52 81.12,-104.79 99.38 0.60 7
3 11/08/2022 16:23:33 -81.12, 153.97 79.83 11/08/2022 16:22:35 -81.11, 153.98 79.86 0.60 58
4 11/08/2022 17:12:59 81.12, -38.31 100.20 11/08/2022 17:13:14 81.13, -38.17 100.23 2.57 15
5 11/11/2022 11:57:46 -81.11,-139.70 79.06 11/11/2022 11:56:57 -81.10,-139.83 79.10 2.40 49
6 11/11/2022 12:47:11 81.14, 28.36 101.01 11/11/2022 12:47:35 81.13, 28.38 101.03 0.44 24
7 11/14/2022 07:31:59 -81.11, -73.21 78.32 11/14/2022 07:31:19 -81.11, -73.36 78.36 2.70 40
8 11/14/2022 08:21:24 81.14, 94.84 101.76 11/14/2022 08:21:57 81.14, 94.85 101.77 0.37 33
9 11/17/2022 03:06:12 -81.10, -6.91 77.65 11/17/2022 03:05:41 -81.10, -6.96 77.66 0.94 31



Historial Predications of SNOs between LANDSAT-8 and METOP-B
